GW1508 Weather Reports


time (UTC)temp
C
wind
direction
speed
KPH
gust
KPH
rain 1hr
cm
rain 24hr
cm
rain mn
cm
humidity
%
barometer
mb
20260902075824 14 84 0.0 9.7 0.00 0.00 0.00 86 1026.3
20260902074322 14 155 0.0 8.0 0.00 0.00 0.00 86 1026.3
20260902071320 14 163 0.0 1.6 0.00 0.00 0.00 89 1026.3
20260902064324 12 134 1.6 8.0 0.00 0.00 0.00 94 1026.3
20260902062825 11 94 0.0 3.2 0.00 0.00 0.00 93 1026.5
20260902061313 5 81 0.0 6.4 0.00 0.00 0.00 94 1026.8
20260902054321 -1 15 0.0 0.0 0.00 0.00 0.00 94 1026.4
20260902052819 -1 15 0.0 0.0 0.00 0.00 0.00 95 1026.1
20260902045823 -1 15 0.0 0.0 0.00 0.00 0.00 95 1025.9
20260902044318 -1 15 0.0 0.0 0.00 0.00 0.00 95 1025.7
20260902041325 -1 15 0.0 0.0 0.00 0.00 0.00 95 1025.7
20260902035819 -1 15 0.0 0.0 0.00 0.00 0.00 95 1025.7
20260902034312 -1 15 0.0 0.0 0.00 0.00 0.00 95 1025.9
20260902032809 -1 15 0.0 0.0 0.00 0.00 0.00 95 1025.8
20260902025818 0 15 0.0 0.0 0.00 0.00 0.00 95 1026.1
20260902024312 0 15 0.0 0.0 0.00 0.00 0.00 95 1026.2
20260902022807 0 15 0.0 0.0 0.00 0.00 0.00 95 1026.1
20260902015820 0 15 0.0 0.0 0.00 0.00 0.00 95 1026.0
20260902014316 0 15 0.0 0.0 0.00 0.00 0.00 94 1025.9
20260902012812 0 15 0.0 0.0 0.00 0.00 0.00 94 1025.9
20260902005823 0 15 0.0 0.0 0.00 0.00 0.00 95 1026.0
20260902004320 0 15 0.0 0.0 0.00 0.00 0.00 95 1026.1
20260902001324 0 15 0.0 0.0 0.00 0.00 0.00 95 1026.1
20260901235815 0 15 0.0 0.0 0.00 0.00 0.00 95 1026.2
20260901232824 0 15 0.0 0.0 0.00 0.00 0.00 94 1026.0
20260901231318 0 15 0.0 0.0 0.00 0.00 0.00 94 1025.8
20260901225812 0 15 0.0 0.0 0.00 0.00 0.00 94 1025.6
20260901222820 1 15 0.0 0.0 0.00 0.00 0.00 94 1025.5
20260901215834 2 15 0.0 0.0 0.00 0.00 0.00 94 1025.3
20260901214321 2 15 0.0 0.0 0.00 0.00 0.00 94 1025.3
20260901212817 2 15 0.0 0.0 0.00 0.00 0.00 94 1025.0
20260901205825 3 15 0.0 0.0 0.00 0.00 0.00 94 1024.7
20260901204316 4 15 0.0 0.0 0.00 0.00 0.00 94 1024.6
20260901201318 5 15 0.0 0.0 0.00 0.00 0.00 94 1024.5
20260901195809 5 15 0.0 0.0 0.00 0.00 0.00 94 1024.3
20260901192825 6 15 0.0 0.0 0.00 0.00 0.00 92 1023.9
20260901191313 6 15 0.0 0.0 0.00 0.00 0.00 93 1023.8
20260901184326 8 15 0.0 0.0 0.00 0.00 0.00 93 1023.4
20260901182824 8 15 0.0 0.0 0.00 0.00 0.00 92 1023.4
20260901181314 10 15 0.0 0.0 0.00 0.00 0.00 91 1023.2
20260901175809 11 15 0.0 0.0 0.00 0.00 0.00 93 1023.3
20260901172824 12 90 0.0 0.0 0.00 0.00 0.00 94 1023.0
20260901171319 12 90 0.0 1.6 0.00 0.00 0.00 94 1022.8
20260901165817 12 91 0.0 1.6 0.00 0.00 0.00 93 1022.9
20260901162824 13 76 0.0 1.6 0.00 0.00 0.00 93 1023.0
20260901161317 13 68 0.0 3.2 0.00 0.00 0.00 92 1022.9
20260901155810 13 312 0.0 6.4 0.00 0.00 0.00 93 1022.9
20260901154310 13 62 1.6 8.0 0.00 0.00 0.00 93 1023.1
20260901151317 13 39 1.6 11.3 0.00 0.00 0.00 92 1023.1
20260901145812 13 78 0.0 8.0 0.00 0.00 0.00 91 1023.1
20260901144312 13 71 1.6 11.3 0.00 0.00 0.00 91 1023.0
20260901141316 14 53 1.6 17.7 0.00 0.00 0.00 89 1023.2
20260901134325 13 70 0.0 8.0 0.00 0.00 0.00 89 1023.5
20260901132813 14 85 0.0 9.7 0.00 0.00 0.00 88 1023.0
20260901125821 14 63 3.2 8.0 0.00 0.00 0.00 86 1023.4
20260901124315 15 302 0.0 8.0 0.00 0.00 0.00 83 1023.4
20260901121324 15 92 0.0 6.4 0.00 0.00 0.00 81 1023.4
20260901115816 16 84 1.6 11.3 0.00 0.00 0.00 81 1023.4
20260901112821 15 99 4.8 9.7 0.00 0.00 0.00 83 1023.4
20260901111314 15 20 0.0 12.9 0.00 0.00 0.00 82 1023.3
20260901105813 15 338 0.0 11.3 0.00 0.00 0.00 84 1023.4
20260901102817 15 336 3.2 12.9 0.00 0.00 0.00 82 1023.4
20260901095827 13 90 1.6 9.7 0.00 0.00 0.00 89 1023.3
20260901094325 13 82 1.6 11.3 0.00 0.00 0.00 91 1023.4
20260901092817 13 18 0.0 9.7 0.00 0.00 0.00 90 1023.4
20260901085830 13 233 3.2 9.7 0.00 0.00 0.00 91 1023.1
20260901084319 13 331 1.6 12.9 0.00 0.00 0.00 91 1023.0
20260901082815 13 63 4.8 11.3 0.00 0.00 0.00 91 1023.0